O'Neill, NE

4:07 AM CST on December 15, 2019 (GMT -0600)
The O'Neill Municipal-Baker

Weather History for KONL - November, 2019

Change the Weather History Date:

Monday, November 11, 2019

  Actual Average Record
Temperature  
Mean Temperature 8 °F -  
Max Temperature 16 °F 45 °F 80 °F (2005)
Min Temperature 1 °F 23 °F -8 °F (1986)
Degree Days  
Heating Degree Days 56    
Moisture  
Dew Point 6 °F    
Average Humidity 77    
Maximum Humidity 88    
Minimum Humidity 64    
Precipitation  
Precipitation 0.00 in - - ()
Sea Level Pressure  
Sea Level Pressure 30.61 in    
Wind  
Wind Speed 13 mph ()    
Max Wind Speed 24 mph    
Max Gust Speed 31 mph    
Visibility 9.8 miles    
Events Snow    
Averages and records for this station are not official NWS values.
T = Trace of Precipitation, MM = Missing Value Source: Averaged Metar Reports

Daily Weather History Graph

Daily Weather History Graph

Search for Another Location

Airport or City:

Astronomy

Nov. 11, 2019 Rise Set
Actual Time 7:20 AM CST 5:16 PM CST
Civil Twilight 6:50 AM CST 5:46 PM CST
Nautical Twilight 6:16 AM CST 6:20 PM CST
Astronomical Twilight 5:43 AM CST 6:53 PM CST
Moon 5:14 PM CST (11/11) 6:10 AM CST (11/11)
Length of Visible Light 10h 55m
Length of Day
9h 55m
Waxing Gibbous, 99% of the Moon is Illuminated
Nov 11
Waxing Gibbous
Nov 12
Full
Nov 19
Last Quarter
Nov 26
New
Dec 4
First Quarter

Hourly Weather History & Observations

Time (CST) Temp. Windchill Dew Point Humidity Pressure Visibility Wind Dir Wind Speed Gust Speed Precip Events Conditions
12:15 AM 16.2 °F 1.9 °F 12.9 °F 87% 30.48 in - North 13.8 mph - N/A   Unknown
12:35 AM 16.2 °F 1.3 °F 12.9 °F 87% 30.49 in - North 15.0 mph - N/A   Unknown
12:55 AM 15.8 °F 1.4 °F 12.7 °F 88% 30.49 in - North 13.8 mph 21.9 mph N/A   Overcast
1:15 AM 15.8 °F 0.3 °F 12.6 °F 87% 30.50 in - North 16.1 mph 20.7 mph N/A   Unknown
1:35 AM 15.8 °F 2.1 °F 12.2 °F 86% 30.50 in - North 12.7 mph 20.7 mph N/A   Unknown
1:55 AM 15.8 °F -0.2 °F 12.0 °F 85% 30.51 in - North 17.3 mph 23.0 mph N/A   Unknown
2:15 AM 15.8 °F 0.9 °F 12.6 °F 87% 30.52 in - NNW 15.0 mph 19.6 mph N/A   Unknown
2:35 AM 15.8 °F 0.3 °F 12.2 °F 86% 30.52 in - NNW 16.1 mph 19.6 mph N/A   Unknown
2:55 AM 15.8 °F 0.3 °F 12.2 °F 86% 30.53 in - NNW 16.1 mph 20.7 mph N/A   Unknown
3:15 AM 15.8 °F 2.1 °F 12.2 °F 86% 30.54 in - NNW 12.7 mph - N/A   Unknown
3:35 AM 15.8 °F 1.4 °F 11.8 °F 84% 30.55 in 10.0 mi NNW 13.8 mph 20.7 mph N/A Snow Light Snow
4:15 AM 15.6 °F -0.4 °F 10.8 °F 81% 30.56 in 10.0 mi North 17.3 mph 23.0 mph N/A Snow Light Snow
4:35 AM 15.3 °F 0.8 °F 10.4 °F 81% 30.55 in 10.0 mi North 13.8 mph 20.7 mph N/A   Overcast
4:55 AM 14.9 °F -0.3 °F 10.4 °F 82% 30.56 in 10.0 mi North 15.0 mph 20.7 mph N/A   Overcast
5:15 AM 14.9 °F -1.3 °F 10.4 °F 82% 30.57 in 5.0 mi North 17.3 mph 24.2 mph N/A Snow Light Snow
5:35 AM 12.7 °F -6.8 °F 5.5 °F 73% 30.59 in 10.0 mi North 24.2 mph 31.1 mph N/A   Overcast
5:55 AM 11.8 °F -6.3 °F 5.4 °F 75% 30.60 in 10.0 mi NNW 19.6 mph 25.3 mph N/A   Mostly Cloudy
6:15 AM 10.9 °F -5.9 °F 4.5 °F 75% 30.61 in 10.0 mi NNW 16.1 mph 21.9 mph N/A   Mostly Cloudy
6:35 AM 10.2 °F -6.3 °F 4.3 °F 77% 30.61 in 10.0 mi NNW 15.0 mph - N/A   Mostly Cloudy
6:55 AM 11.1 °F -3.2 °F 5.5 °F 78% 30.63 in 10.0 mi NNW 11.5 mph - N/A   Overcast
7:15 AM 11.1 °F -3.9 °F 5.5 °F 78% 30.64 in 10.0 mi NNW 12.7 mph - N/A   Overcast
7:35 AM 10.8 °F -4.3 °F 5.2 °F 78% 30.64 in 10.0 mi NNW 12.7 mph - N/A   Overcast
7:55 AM 10.8 °F -3.6 °F 5.9 °F 81% 30.65 in 10.0 mi NNW 11.5 mph - N/A Snow Light Snow
8:15 AM 10.8 °F -1.1 °F 6.3 °F 82% 30.65 in 5.0 mi NNW 8.1 mph - N/A Snow Light Snow
8:35 AM 10.9 °F -5.4 °F 5.0 °F 77% 30.66 in 10.0 mi NW 15.0 mph 19.6 mph N/A   Overcast
8:55 AM 10.4 °F -4.8 °F 4.1 °F 76% 30.66 in 10.0 mi NW 12.7 mph 18.4 mph N/A   Scattered Clouds
9:15 AM 10.2 °F -6.3 °F 3.9 °F 76% 30.66 in 10.0 mi NW 15.0 mph 20.7 mph N/A   Clear
9:55 AM 11.3 °F -4.9 °F 4.8 °F 75% 30.66 in 10.0 mi NNW 15.0 mph 23.0 mph N/A   Clear
10:15 AM 12.2 °F -4.3 °F 5.5 °F 75% 30.66 in 10.0 mi NW 16.1 mph - N/A   Clear
10:35 AM 12.7 °F -3.0 °F 5.7 °F 74% 30.66 in 10.0 mi NW 15.0 mph - N/A   Clear
10:55 AM 13.1 °F -3.1 °F 5.7 °F 72% 30.67 in 10.0 mi NW 16.1 mph - N/A   Clear
11:15 AM 13.6 °F -2.4 °F 6.6 °F 74% 30.67 in 10.0 mi NW 16.1 mph - N/A   Mostly Cloudy
11:35 AM 14.4 °F -2.5 °F 6.8 °F 72% 30.66 in 10.0 mi NNW 18.4 mph 25.3 mph N/A   Mostly Cloudy
11:55 AM 14.0 °F -3.4 °F 5.7 °F 70% 30.66 in 10.0 mi NW 19.6 mph 27.6 mph N/A   Scattered Clouds
12:15 PM 14.4 °F -2.5 °F 5.9 °F 69% 30.66 in 10.0 mi NW 18.4 mph 28.8 mph N/A   Mostly Cloudy
12:35 PM 14.5 °F -3.6 °F 5.9 °F 69% 30.65 in 10.0 mi NW 21.9 mph 29.9 mph N/A   Overcast
12:55 PM 15.4 °F -2.8 °F 6.1 °F 67% 30.65 in 10.0 mi NW 23.0 mph 27.6 mph N/A   Overcast
1:15 PM 14.4 °F -2.0 °F 5.9 °F 69% 30.65 in 7.0 mi NW 17.3 mph - N/A   Overcast
1:35 PM 15.3 °F -1.8 °F 5.9 °F 67% 30.65 in 10.0 mi NW 19.6 mph - N/A   Overcast
1:55 PM 16.7 °F -1.1 °F 6.8 °F 65% 30.64 in 10.0 mi NNW 23.0 mph 27.6 mph N/A   Overcast
2:15 PM 15.3 °F -0.9 °F 5.7 °F 66% 30.64 in 10.0 mi NNW 17.3 mph - N/A   Overcast
2:35 PM 16.9 °F -0.1 °F 7.0 °F 65% 30.64 in 10.0 mi NNW 20.7 mph 25.3 mph N/A   Overcast
2:55 PM 14.7 °F -2.5 °F 5.2 °F 66% 30.64 in 10.0 mi NW 19.6 mph - N/A   Mostly Cloudy
3:15 PM 15.4 °F -1.6 °F 7.2 °F 70% 30.63 in 10.0 mi NNW 19.6 mph - N/A   Mostly Cloudy
3:35 PM 16.2 °F 1.3 °F 5.7 °F 64% 30.63 in 10.0 mi NW 15.0 mph 20.7 mph N/A   Mostly Cloudy
3:55 PM 14.9 °F 1.6 °F 5.5 °F 66% 30.63 in 10.0 mi NW 11.5 mph - N/A   Mostly Cloudy
4:15 PM 15.1 °F -0.1 °F 5.2 °F 65% 30.63 in 10.0 mi NW 15.0 mph - N/A   Mostly Cloudy
4:35 PM 14.9 °F 1.6 °F 5.4 °F 66% 30.62 in 10.0 mi NNW 11.5 mph 17.3 mph N/A   Scattered Clouds
4:55 PM 13.6 °F 1.6 °F 4.6 °F 67% 30.62 in 10.0 mi NNW 9.2 mph - N/A   Scattered Clouds
5:15 PM 12.0 °F 0.5 °F 3.7 °F 69% 30.62 in 10.0 mi NW 8.1 mph - N/A   Scattered Clouds
5:35 PM 11.1 °F -1.6 °F 3.4 °F 71% 30.62 in 10.0 mi NW 9.2 mph - N/A   Clear
5:55 PM 10.0 °F -2.9 °F 3.2 °F 74% 30.63 in 10.0 mi NW 9.2 mph - N/A   Clear
6:15 PM 10.0 °F -1.9 °F 3.2 °F 74% 30.63 in 10.0 mi NW 8.1 mph - N/A   Clear
6:35 PM 7.9 °F -3.5 °F 2.1 °F 77% 30.64 in 10.0 mi NW 6.9 mph - N/A   Clear
6:55 PM 7.7 °F -2.4 °F 2.3 °F 79% 30.63 in 10.0 mi WNW 5.8 mph - N/A   Clear
7:15 PM 6.6 °F -0.3 °F 1.9 °F 81% 30.63 in 10.0 mi NW 3.5 mph - N/A   Clear
7:55 PM 5.7 °F -3.2 °F 1.8 °F 84% 30.62 in 10.0 mi NW 4.6 mph - N/A   Clear
8:15 PM 5.2 °F -3.8 °F 0.7 °F 82% 30.62 in 10.0 mi West 4.6 mph - N/A   Clear
8:35 PM 3.6 °F - -0.2 °F 84% 30.61 in 10.0 mi Calm Calm - N/A   Clear
8:55 PM 4.5 °F - 0.5 °F 84% 30.62 in 10.0 mi Calm Calm - N/A   Clear
9:15 PM 4.6 °F - 1.4 °F 86% 30.61 in 10.0 mi Calm Calm - N/A   Clear
9:35 PM 2.3 °F -7.2 °F -0.9 °F 86% 30.61 in 10.0 mi WSW 4.6 mph - N/A   Clear
9:55 PM 1.8 °F -7.8 °F -1.5 °F 86% 30.60 in 10.0 mi WSW 4.6 mph - N/A   Clear
10:15 PM 2.8 °F -6.6 °F -0.4 °F 86% 30.61 in 10.0 mi WSW 4.6 mph - N/A   Clear
10:35 PM 3.4 °F - -0.0 °F 86% 30.61 in 10.0 mi Calm Calm - N/A   Clear
10:55 PM 1.4 °F -8.3 °F -2.2 °F 85% 30.61 in 10.0 mi WSW 4.6 mph - N/A   Clear
11:15 PM 2.7 °F -6.8 °F -0.9 °F 85% 30.60 in 10.0 mi WSW 4.6 mph - N/A   Clear
11:35 PM 2.7 °F -8.4 °F -0.9 °F 85% 30.59 in 10.0 mi WSW 5.8 mph - N/A   Clear
11:55 PM 2.1 °F -7.4 °F -1.5 °F 85% 30.58 in 10.0 mi WSW 4.6 mph - N/A   Clear